This is the latest recevied weather packets stored in our database for station/object W0RMT-13. If no packets are shown the sender has not sent any weather packets the latest 10 day(s).
| Time | Temp. | Humidity | Pressure | Rain* | Wind** | Luminosity | Snow |
|---|---|---|---|---|---|---|---|
| 1777665669 | 16.11° C | 27% | 1019 hPa | 0 mm | - | 658 W/m² | - |
| 1777665008 | 16.11° C | 28% | 1019 hPa | 0 mm | - | 653 W/m² | - |
| 1777664371 | 15.56° C | 26% | 1019 hPa | 0 mm | - | 659 W/m² | - |
| 1777663703 | 15.56° C | 27% | 1019 hPa | 0 mm | - | 663 W/m² | - |
| 1777663000 | 15.56° C | 28% | 1019 hPa | 0 mm | - | 638 W/m² | - |
| 1777662332 | 15.56° C | 28% | 1019.4 hPa | 0 mm | - | 644 W/m² | - |
| 1777661713 | 15.56° C | 28% | 1019 hPa | 0 mm | - | 647 W/m² | - |
| 1777661038 | 15° C | 30% | 1019 hPa | 0 mm | - | 635 W/m² | - |
| 1777660349 | 15° C | 30% | 1019.4 hPa | 0 mm | - | 633 W/m² | - |
| 1777659742 | 15° C | 32% | 1019.4 hPa | 0 mm | - | 635 W/m² | - |
| 1777659088 | 15° C | 29% | 1019.4 hPa | 0 mm | - | 634 W/m² | - |
| 1777658428 | 15° C | 29% | 1019.8 hPa | 0 mm | - | 620 W/m² | - |
| 1777657788 | 15° C | 30% | 1019.8 hPa | 0 mm | - | 612 W/m² | - |
| 1777657182 | 14.44° C | 32% | 1019.8 hPa | 0 mm | - | 615 W/m² | - |
| 1777656558 | 14.44° C | 31% | 1019.8 hPa | 0 mm | - | 594 W/m² | - |
| 1777655846 | 13.89° C | 31% | 1019.8 hPa | 0 mm | - | 585 W/m² | - |
| 1777655251 | 13.33° C | 31% | 1019.8 hPa | 0 mm | - | 568 W/m² | - |
| 1777654558 | 13.89° C | 32% | 1020.2 hPa | 0 mm | - | 556 W/m² | - |
| 1777653910 | 13.89° C | 33% | 1020.2 hPa | 0 mm | - | 545 W/m² | - |
| 1777653277 | 13.33° C | 32% | 1020.2 hPa | 0 mm | - | 527 W/m² | - |
| 1777652613 | 13.33° C | 32% | 1020.2 hPa | 0 mm | - | 502 W/m² | - |
| 1777651917 | 12.78° C | 33% | 1020.2 hPa | 0 mm | - | 461 W/m² | - |
| 1777651308 | 12.78° C | 31% | 1019.8 hPa | 0 mm | - | 443 W/m² | - |
| 1777650634 | 12.22° C | 36% | 1020.2 hPa | 0 mm | - | 418 W/m² | - |
| 1777649927 | 12.22° C | 40% | 1020.2 hPa | 0 mm | - | 386 W/m² | - |
* Rain latest hour (hover to see other rain measurements)
** Current wind speed in m/s (hover to see current wind gust speed)